Showing default

JACKAL-02, 59134

Orbit data source: Space-Track

JACKAL-02, 59134 is a payload satellite owned by True Anomaly (US) in SSO that was launched on Mon, 04 Mar 2024 UTC via an FALCON 9 launch vehicle from the Air Force Western Test Range (AFWTR). Payload-class satellites include a variety of spacecraft equipped with specific instruments for various scientific and technological missions. These include communications satellites like Starlink; space stations such as the ISS; scientific satellites like the Hubble; Earth observation satellites from companies like Planet Labs, Umbra, and HawkEye 360; GPS; miniature CubeSats for education and research; and military/defense satellites.

Loading next visibility...
Identifier
59134, 2024-043AN
Orbit
SSO
Last TLE update
1 day ago
Origin
Manufacturer
True Anomaly
Mission
Operational Commercial Weather
Bus & Motor
JACKAL, Unknown motor
Mass
275 kg wet, 275 kg dry
Launch date (UTC)
2024-03-04 (1 year ago)
Launch vehicle
FALCON 9
Launch site
Air Force Western Test Range (AFWTR)
Object type
Payload
Rocket body
Debris
Shape & HBR
Box + 2 Pan, 0.5 m
Radar Cross Section
0.126 m², Medium (>0.1 m² and < 1m²)

Expand to show TLE details & history

TLE from 1 day ago
0 JACKAL-02
1 59134U 24043AN  25198.37857529  .00009765  00000-0  30521-3 0  9997
2 59134  97.5164 329.5927 0008613 336.2245  23.8598 15.33339449 76109
Epoch: 2025-07-17T09:05Z
TLE epoch observation values (Epoch: 2025-07-17T09:05:08.905Z)
Latitude
Longitude
-102.13965°
Altitude
463.571 km
Speed
7.638 km/s
True Right ascension
21h 58m 22s
True Declination
0° 00' 00"
Sunlit
Object was in full shadow at epoch
Visualization orbit readout
Latitude
-44.72914°
Longitude
71.4949°
Altitude
484.876 km
Speed
7.62 km/s
Apparent Right ascension
10h 43m 04s
Apparent Declination
-43° 34' 58"
Sunlit
Object is in daylight
Visualization observer readout
Local Sidereal Time
23:53:01
Azimuth
111.43° ESE
Elevation
-76.478°
Doppler factor
1
Orbital elements
Apogee altitude
468.702 km
Perigee altitude
456.918 km
Semi-major axis
6,840.947 km
Eccentricity
0.00086
Inclination
97.5164°
RAAN
329.5927°
Arg. of periapsis
336.2245°
True anomaly
23.89976°
Mean anomaly
23.8598°
Eccentric anomaly
23.87978°
Mean motion
3.83591 °/min
Orbital period
93.85 mins
BSTAR
0.00030521
Loading maneuver chart data...
Loading SW <> Apogee altitude chart data...
Loading historical data...
Loading historical data...
Loading historical data...
Loading historical data...
Loading historical data...
Loading historical data...
Loading historical data...
|